Location: Basse Occidentale du Courleau
(48.3833°N, 4.8333°W)
Time: 19:48:01
(UTC+00:00)

Cosmos 2322 Rocket - Pass Details

Date: 05 July 2020
Orbit: 832 x 851 km, 71.0° (Epoch: 05 August)

Event Time Altitude Azimuth Distance (km) Brightness Sun altitude
Rises 21:37:00 0° 229° (SW) 3,368 5.3 -9.7°
Reaches altitude 10° 21:39:33 10° 237° (WSW) 2,439 4.7 -10.0°
Maximum altitude 21:44:50 41° 307° (NW) 1,187 3.6 -10.5°
Drops below altitude 10° 21:50:09 10° 18° (NNE) 2,458 5.1 -11.0°
Sets 21:52:45 0° 25° (NNE) 3,398 5.8 -11.3°
